When you browse on this site, cookies collect data to enhance your experience and personalize the content and advertising you see.
Visit our Privacy Policy to learn more. By continuing to use the site, you agree to this use of cookies and data.
EN

Hourly Weather Campo Grande

Today, 4 August, Tuesday

Time Temperature Precipitation Wind Pressure Humidity
00:00 +20°C° 0 mm 4 mps 715 mmHg 41%
01:00 +20°C° 0 mm 4 mps 715 mmHg 41%
02:00 +19°C° 0 mm 4 mps 715 mmHg 43%
03:00 +19°C° 0 mm 4 mps 715 mmHg 44%
04:00 +18°C° 0 mm 4 mps 715 mmHg 44%
05:00 +18°C° 0 mm 4 mps 715 mmHg 45%
06:00 +19°C° 0 mm 4 mps 715 mmHg 42%
07:00 +20°C° 0 mm 5 mps 716 mmHg 38%
08:00 +22°C° 0 mm 4 mps 717 mmHg 40%
09:00 +25°C° 0 mm 5 mps 717 mmHg 36%
10:00 +27°C° 0 mm 5 mps 717 mmHg 32%
11:00 +29°C° 0 mm 5 mps 717 mmHg 27%
12:00 +30°C° 0 mm 5 mps 716 mmHg 26%
13:00 +32°C° 0 mm 4 mps 715 mmHg 24%
14:00 +33°C° 0 mm 4 mps 715 mmHg 23%
15:00 +30°C° 0 mm 4 mps 714 mmHg 24%
16:00 +29°C° 0 mm 3 mps 714 mmHg 26%
17:00 +28°C° 0 mm 3 mps 714 mmHg 27%
18:00 +27°C° 0 mm 4 mps 714 mmHg 28%
19:00 +25°C° 0 mm 4 mps 714 mmHg 29%
20:00 +23°C° 0 mm 5 mps 714 mmHg 29%
21:00 +23°C° 0 mm 5 mps 714 mmHg 31%
22:00 +22°C° 0 mm 5 mps 715 mmHg 33%
23:00 +22°C° 0 mm 6 mps 715 mmHg 35%

Tomorrow, 5 August, Wednesday

Time Temperature Precipitation Wind Pressure Humidity
00:00 +21°C° 0 mm 5 mps 714 mmHg 36%
01:00 +21°C° 0 mm 5 mps 714 mmHg 37%
02:00 +21°C° 0 mm 5 mps 714 mmHg 38%
03:00 +20°C° 0 mm 5 mps 714 mmHg 39%
04:00 +19°C° 0 mm 5 mps 714 mmHg 40%
05:00 +19°C° 0 mm 5 mps 714 mmHg 41%
06:00 +20°C° 0 mm 5 mps 714 mmHg 39%
07:00 +21°C° 0 mm 6 mps 715 mmHg 37%
08:00 +22°C° 0 mm 6 mps 716 mmHg 35%
09:00 +26°C° 0 mm 6 mps 716 mmHg 30%
10:00 +28°C° 0 mm 6 mps 716 mmHg 25%
11:00 +32°C° 0 mm 6 mps 716 mmHg 20%
12:00 +32°C° 0 mm 5 mps 715 mmHg 18%
13:00 +33°C° 0 mm 5 mps 715 mmHg 17%
14:00 +34°C° 0 mm 4 mps 714 mmHg 15%
15:00 +33°C° 0 mm 4 mps 714 mmHg 16%
16:00 +30°C° 0 mm 4 mps 713 mmHg 18%
17:00 +29°C° 0 mm 4 mps 713 mmHg 19%
18:00 +27°C° 0 mm 4 mps 713 mmHg 21%
19:00 +26°C° 0 mm 5 mps 713 mmHg 23%
20:00 +23°C° 0 mm 5 mps 713 mmHg 24%
21:00 +23°C° 0 mm 5 mps 714 mmHg 26%
22:00 +23°C° 0 mm 6 mps 714 mmHg 28%
23:00 +22°C° 0 mm 6 mps 714 mmHg 30%

Day after tomorrow, 6 August, Thursday

Time Temperature Precipitation Wind Pressure Humidity
00:00 +22°C° 0 mm 6 mps 714 mmHg 31%
01:00 +21°C° 0 mm 5 mps 713 mmHg 31%
02:00 +21°C° 0 mm 5 mps 713 mmHg 31%
03:00 +20°C° 0 mm 5 mps 713 mmHg 33%
04:00 +20°C° 0 mm 5 mps 713 mmHg 34%
05:00 +19°C° 0 mm 5 mps 713 mmHg 35%
06:00 +20°C° 0 mm 6 mps 714 mmHg 33%
07:00 +22°C° 0 mm 6 mps 715 mmHg 32%
08:00 +23°C° 0 mm 7 mps 715 mmHg 31%
09:00 +26°C° 0 mm 6 mps 716 mmHg 27%
10:00 +28°C° 0 mm 6 mps 716 mmHg 24%
11:00 +32°C° 0 mm 5 mps 716 mmHg 20%
12:00 +33°C° 0 mm 5 mps 715 mmHg 18%
13:00 +33°C° 0 mm 4 mps 715 mmHg 16%
14:00 +34°C° 0 mm 3 mps 714 mmHg 14%
15:00 +33°C° 0 mm 3 mps 714 mmHg 16%
16:00 +30°C° 0 mm 3 mps 714 mmHg 17%
17:00 +29°C° 0 mm 2 mps 713 mmHg 19%
18:00 +27°C° 0 mm 3 mps 713 mmHg 21%
19:00 +26°C° 0 mm 4 mps 714 mmHg 24%
20:00 +23°C° 0 mm 4 mps 714 mmHg 26%
21:00 +23°C° 0 mm 5 mps 714 mmHg 29%
22:00 +22°C° 0 mm 5 mps 714 mmHg 31%
23:00 +22°C° 0 mm 5 mps 714 mmHg 34%

7 August, Friday

Time Temperature Precipitation Wind Pressure Humidity
00:00 +21°C° 0 mm 5 mps 714 mmHg 35%
01:00 +21°C° 0 mm 5 mps 714 mmHg 36%
02:00 +20°C° 0 mm 5 mps 714 mmHg 38%
03:00 +19°C° 0 mm 5 mps 714 mmHg 38%
04:00 +19°C° 0 mm 5 mps 714 mmHg 38%
05:00 +19°C° 0 mm 5 mps 714 mmHg 38%
06:00 +20°C° 0 mm 5 mps 714 mmHg 36%
07:00 +21°C° 0 mm 5 mps 715 mmHg 33%
08:00 +22°C° 0 mm 6 mps 715 mmHg 30%
09:00 +26°C° 0 mm 6 mps 715 mmHg 27%
10:00 +28°C° 0 mm 5 mps 715 mmHg 23%
11:00 +32°C° 0 mm 5 mps 715 mmHg 19%
12:00 +32°C° 0 mm 4 mps 715 mmHg 17%
13:00 +33°C° 0 mm 3 mps 714 mmHg 15%
14:00 +34°C° 0 mm 3 mps 713 mmHg 13%
15:00 +31°C° 0 mm 2 mps 713 mmHg 14%
16:00 +30°C° 0 mm 2 mps 713 mmHg 15%
17:00 +28°C° 0 mm 2 mps 712 mmHg 16%
18:00 +27°C° 0 mm 2 mps 712 mmHg 17%
19:00 +25°C° 0 mm 3 mps 713 mmHg 19%
20:00 +24°C° 0 mm 3 mps 713 mmHg 20%
21:00 +22°C° 0 mm 4 mps 713 mmHg 23%
22:00 +22°C° 0 mm 4 mps 713 mmHg 26%
23:00 +21°C° 0 mm 5 mps 714 mmHg 29%

8 August, Saturday

Time Temperature Precipitation Wind Pressure Humidity
00:00 +21°C° 0 mm 5 mps 713 mmHg 30%
01:00 +21°C° 0 mm 5 mps 713 mmHg 32%
02:00 +20°C° 0 mm 4 mps 713 mmHg 34%
03:00 +20°C° 0 mm 4 mps 713 mmHg 35%
04:00 +20°C° 0 mm 4 mps 714 mmHg 36%
05:00 +19°C° 0 mm 4 mps 714 mmHg 38%
06:00 +21°C° 0 mm 4 mps 714 mmHg 36%
07:00 +22°C° 0 mm 5 mps 715 mmHg 34%
08:00 +23°C° 0 mm 5 mps 716 mmHg 32%
09:00 +27°C° 0 mm 4 mps 716 mmHg 28%
10:00 +29°C° 0 mm 4 mps 716 mmHg 24%
11:00 +33°C° 0 mm 4 mps 716 mmHg 20%
12:00 +34°C° 0 mm 3 mps 715 mmHg 18%
13:00 +34°C° 0 mm 2 mps 714 mmHg 17%
14:00 +35°C° 0 mm 2 mps 713 mmHg 15%
15:00 +32°C° 0 mm 2 mps 713 mmHg 17%
16:00 +31°C° 0 mm 2 mps 713 mmHg 19%
17:00 +29°C° 0 mm 2 mps 712 mmHg 20%
18:00 +28°C° 0 mm 3 mps 712 mmHg 22%
19:00 +26°C° 0 mm 3 mps 713 mmHg 24%
20:00 +25°C° 0 mm 3 mps 713 mmHg 26%
21:00 +23°C° 0 mm 4 mps 713 mmHg 27%
22:00 +22°C° 0 mm 4 mps 713 mmHg 28%
23:00 +22°C° 0 mm 5 mps 713 mmHg 29%

9 August, Sunday

Time Temperature Precipitation Wind Pressure Humidity
00:00 +21°C° 0 mm 4 mps 713 mmHg 30%
01:00 +21°C° 0 mm 4 mps 712 mmHg 32%
02:00 +20°C° 0 mm 4 mps 712 mmHg 33%
03:00 +20°C° 0 mm 4 mps 712 mmHg 35%
04:00 +20°C° 0 mm 4 mps 712 mmHg 36%
05:00 +20°C° 0 mm 4 mps 712 mmHg 37%
06:00 +21°C° 0 mm 5 mps 713 mmHg 37%
07:00 +22°C° 0 mm 5 mps 714 mmHg 36%
08:00 +23°C° 0 mm 6 mps 714 mmHg 36%
09:00 +27°C° 0 mm 6 mps 714 mmHg 31%
10:00 +30°C° 0 mm 5 mps 714 mmHg 26%
11:00 +33°C° 0 mm 5 mps 714 mmHg 21%
12:00 +34°C° 0 mm 4 mps 713 mmHg 20%
13:00 +34°C° 0 mm 3 mps 713 mmHg 18%
14:00 +35°C° 0 mm 3 mps 712 mmHg 16%
15:00 +34°C° 0 mm 2 mps 711 mmHg 18%
16:00 +31°C° 0 mm 2 mps 711 mmHg 20%
17:00 +30°C° 0 mm 2 mps 710 mmHg 22%
18:00 +28°C° 0 mm 3 mps 711 mmHg 24%
19:00 +27°C° 0 mm 3 mps 711 mmHg 26%
20:00 +25°C° 0 mm 3 mps 711 mmHg 28%
21:00 +25°C° 0 mm 4 mps 711 mmHg 29%
22:00 +23°C° 0 mm 4 mps 711 mmHg 30%
23:00 +23°C° 0 mm 5 mps 711 mmHg 31%
Show more